Powrót do katalogu

TITAN 3C TRANSTAGE R/B

AktywnyGEO
NORAD 13089·ROCKET BODY·🇺🇸 United States

Wystrzelony Mar 6, 1982 z Cape Canaveral Space Force Station

Loading…

TLE

ŚwieżeSource: Space-Track

Epoka: Sep 14, 2026, 05:57 UTC

1 13089U 82019B   26257.24799750 -.00000022  00000-0  00000-0 0  9991
2 13089   7.3260 300.9095 0011131 155.3292 204.6319  1.01258735 26534

Śledź TITAN 3C TRANSTAGE R/B w czasie rzeczywistym z AllMySat

Download on the App Store